Temp
6 5 5 6 6 7 7 7 7 7 8 8 8 8 8 7 7 7 7 7 7 7 7 7 7 7 8 8 8 8 8 8 8 8 8 8 8 8 8 8 8 8 7 7 7 6 6
5 6 6 5 6 7 7 7 7 7 7 7 7 8 8 8 7 7 7 7 7 7 7 7 7 7 8 8 8 8 8 8 8 8 8 8 8 8 7 8 7 7 7 7 6 6 6
5 5 6 6 6 6 6 7 7 7 7 7 7 7 7 7 7 7 7 7 7 7 7 7 7 7 8 8 8 8 8 8 8 8 8 8 8 7 7 7 7 7 7 7 6 6 6
5 5 5 6 6 6 6 6 7 7 7 7 7 7 7 7 7 7 7 7 7 7 7 7 7 7 8 8 8 8 8 8 8 8 8 8 8 7 7 7 7 6 6 6 6 6 6
5 5 5 5 5 6 6 6 6 7 7 7 7 7 7 7 7 7 7 6 6 7 7 7 7 7 7 8 8 8 8 8 8 8 8 8 7 7 6 6 6 6 6 6 5 5 5
5 5 5 5 6 5 6 6 6 6 6 7 7 7 7 7 7 7 7 6 6 6 6 7 7 7 7 7 7 7 7 7 7 7 7 7 6 6 6 6 6 6 6 6 6 6 5
4 4 5 5 5 5 5 6 6 6 6 6 6 6 6 6 6 6 6 6 6 6 6 6 6 6 6 7 7 7 7 7 7 7 6 6 6 7 6 6 5 6 5 5 5 5 5
3 3 4 5 5 5 5 5 5 6 6 6 6 6 6 6 6 6 6 6 6 6 6 6 6 6 6 7 7 6 6 6 6 6 6 6 6 6 6 5 5 5 5 5 5 5 5
2 2 2 2 4 5 4 4 5 5 5 6 6 6 6 6 6 6 6 5 5 5 5 6 6 6 6 6 6 6 5 5 6 6 5 5 6 5 5 5 5 5 5 5 5 5 4
1 1 2 2 2 3 4 4 4 4 5 5 5 5 5 5 5 6 5 5 5 5 5 6 6 6 6 6 5 5 5 5 5 5 5 5 5 5 5 5 4 5 5 5 4 4 3
2 2 1 1 2 2 3 3 4 4 4 4 5 5 5 5 5 5 5 5 5 4 -1 6 6 5 6 5 5 5 5 5 5 5 5 5 5 5 4 4 4 4 4 4 3 3 2
1 1 1 2 1 2 2 2 2 3 4 4 4 5 5 5 4 4 4 4 4 4 4 6 6 6 5 5 5 5 4 4 4 4 4 5 4 4 4 4 4 3 3 3 2 1 -2
1 0 1 1 1 1 1 2 2 2 3 3 3 4 4 4 4 4 3 3 3 3 6 6 6 6 6 5 5 5 5 5 4 4 4 4 4 4 4 4 3 3 2 2 -2 -3 -2
0 -0 -0 -0 1 1 0 1 2 2 2 2 2 3 3 4 4 4 3 2 2 5 6 6 6 5 5 5 5 5 5 5 5 4 4 4 4 4 4 3 3 3 2 3 1 -3 -2
0 0 0 0 0 -1 0 1 0 1 1 1 1 2 2 3 3 3 3 1 3 4 5 6 5 5 5 5 5 4 4 5 5 5 4 4 3 4 3 3 2 1 2 2 1 -1 -4
-0 -0 -0 0 0 0 0 -1 -0 0 0 1 1 1 1 2 2 2 1 2 3 3 4 5 5 5 5 6 5 4 5 5 5 4 4 4 3 3 3 2 2 2 2 1 1 -2 -3
-2 -1 -1 -1 -1 -0 -0 -0 -0 -0 -0 0 0 1 1 1 1 1 1 2 4 4 4 4 4 4 5 5 5 5 4 5 5 5 4 3 2 2 1 2 2 2 1 1 1 0 -5
-3 -2 -2 -1 -1 -2 -1 -1 -1 -1 -1 -1 -1 -1 0 1 1 1 0 2 2 3 3 3 3 4 4 4 4 4 4 4 4 3 3 3 1 1 2 2 1 1 0 1 1 -1 -2
-3 -3 -2 -2 -1 -2 -2 -1 -1 -1 -1 -1 -1 -1 -1 -0 0 1 0 1 2 2 2 2 2 3 3 3 3 3 3 3 3 3 3 2 0 0 -0 0 0 0 0 -0 -0 -0 -2
-4 -4 -3 -2 -2 -2 -2 -2 -2 -2 -0 -2 -2 -2 -1 -1 -1 -0 -0 -1 -0 1 1 1 1 1 2 2 3 2 2 2 2 2 2 1 1 1 1 2 2 -0 1 -0 -1 -2 -1
-5 -5 -4 -4 -3 -3 -3 -3 -3 -3 -3 -2 -4 -3 -2 -1 -2 -1 -1 -0 -1 -1 -1 -1 -1 -0 1 2 2 2 1 1 1 1 1 -0 -0 -0 0 0 -0 -1 -2 -2 -1 -1 -1
-6 -5 -5 -4 -3 -3 -3 -3 -4 -4 -4 -4 -3 -4 -3 -2 -2 -2 -2 -1 -1 -1 -1 -3 -2 -1 -3 -2 0 1 -0 -1 -2 -2 -2 -2 -2 -2 -1 -1 -2 -2 -3 -3 -3 -3 -3
-7 -6 -5 -4 -4 -4 -3 -3 -4 -4 -4 -5 -5 -4 -4 -4 -3 -3 -2 -2 -2 -2 -2 -2 -2 -2 -3 -2 -1 -1 -2 -3 -5 -4 -5 -4 -4 -4 -4 -3 -3 -4 -2 -1 -1 -2 -3
-7 -7 -6 -5 -4 -4 -4 -4 -4 -4 -5 -5 -4 -5 -5 -5 -4 -4 -3 -3 -3 -3 -2 -3 -3 -3 -2 -2 -3 -3 -3 -4 -4 -4 -5 -5 -6 -6 -7 -7 -9 -3 -3 -2 -2 -2 -3
-8 -7 -7 -6 -5 -5 -4 -4 -4 -5 -5 -5 -6 -6 -7 -7 -5 -4 -5 -4 -4 -4 -3 -3 -3 -4 -4 -3 -4 -5 -5 -5 -4 -4 -5 -7 -7 -7 -7 -9 -5 -4 -4 -3 -3 -3 -4
-8 -8 -7 -6 -5 -5 -5 -5 -4 -5 -5 -5 -6 -6 -6 -7 -6 -5 -5 -5 -5 -4 -4 -4 -4 -4 -4 -4 -5 -6 -5 -5 -5 -5 -5 -6 -8 -8 -9 -9 -9 -5 -5 -5 -4 -5 -5
-8 -8 -7 -7 -6 -6 -5 -5 -5 -5 -6 -6 -6 -7 -6 -7 -6 -6 -6 -5 -5 -5 -5 -5 -4 -4 -5 -6 -6 -6 -5 -5 -5 -6 -5 -8 -9 -9 -10 -9 -8 -6 -6 -7 -8 -6 -7
-8 -8 -7 -7 -6 -6 -6 -6 -6 -6 -6 -6 -6 -6 -7 -7 -7 -6 -6 -6 -6 -6 -5 -5 -5 -5 -5 -6 -7 -6 -6 -6 -6 -6 -6 -5 -8 -9 -11 -11 -10 -6 -7 -7 -7 -8 -8
-8 -8 -8 -7 -7 -6 -6 -6 -6 -6 -6 -6 -6 -6 -7 -7 -7 -7 -7 -6 -6 -6 -6 -6 -5 -5 -5 -5 -6 -6 -6 -6 -6 -6 -7 -7 -7 -7 -7 -8 -7 -8 -9 -9 -9 -10 -10
Height
3167 3167 3167 3167 3167 3168 3169 3170 3170 3170 3169 3167 3166 3166 3164 3163 3162 3161 3160 3160 3158 3158 3157 3156 3155 3154 3154 3154 3155 3155 3155 3156 3156 3156 3156 3155 3155 3155 3155 3155 3156 3156 3157 3158 3158 3159 3160
3168 3167 3167 3167 3167 3167 3166 3166 3167 3168 3168 3167 3166 3165 3164 3163 3162 3161 3160 3159 3158 3156 3156 3155 3154 3153 3153 3153 3153 3153 3153 3154 3154 3154 3154 3154 3154 3154 3154 3154 3154 3154 3155 3156 3156 3157 3158
3166 3166 3166 3166 3166 3166 3166 3164 3163 3164 3164 3165 3165 3164 3163 3162 3161 3159 3158 3158 3156 3155 3154 3154 3153 3152 3151 3152 3151 3151 3151 3152 3152 3152 3152 3152 3152 3152 3152 3152 3152 3152 3153 3153 3154 3155 3155
3164 3165 3163 3164 3164 3164 3164 3164 3162 3161 3161 3162 3162 3162 3161 3160 3159 3158 3157 3156 3155 3153 3153 3152 3151 3151 3149 3149 3149 3149 3149 3149 3149 3150 3150 3149 3149 3150 3149 3150 3150 3150 3151 3151 3151 3152 3153
3161 3160 3162 3162 3161 3161 3161 3162 3161 3160 3159 3158 3158 3158 3158 3158 3157 3156 3155 3154 3153 3151 3150 3150 3149 3149 3147 3146 3146 3146 3146 3147 3147 3147 3147 3147 3147 3147 3147 3147 3148 3148 3147 3148 3149 3149 3150
3158 3158 3158 3158 3159 3159 3158 3158 3159 3158 3157 3155 3155 3155 3154 3154 3154 3154 3152 3151 3150 3149 3148 3147 3146 3148 3145 3145 3144 3144 3143 3143 3144 3144 3144 3144 3144 3143 3144 3145 3145 3145 3145 3145 3146 3147 3146
3151 3153 3154 3153 3154 3155 3156 3154 3153 3155 3155 3154 3152 3150 3150 3150 3150 3150 3150 3149 3150 3148 3145 3145 3143 3142 3141 3141 3141 3141 3140 3140 3140 3141 3141 3141 3142 3140 3143 3143 3143 3143 3143 3143 3144 3144 3144
3152 3149 3147 3148 3149 3149 3151 3152 3151 3149 3150 3150 3150 3148 3147 3146 3146 3146 3146 3145 3145 3144 3141 3139 3138 3137 3137 3136 3136 3135 3137 3138 3137 3137 3138 3140 3138 3139 3140 3140 3141 3141 3140 3140 3141 3141 3141
3149 3149 3147 3144 3142 3143 3143 3145 3147 3146 3146 3146 3145 3146 3144 3142 3142 3143 3142 3142 3140 3139 3137 3133 3133 3132 3132 3133 3130 3130 3132 3132 3133 3134 3135 3136 3136 3136 3137 3138 3138 3139 3139 3139 3139 3137 3137
3144 3143 3143 3142 3141 3140 3136 3137 3140 3141 3142 3141 3141 3140 3141 3140 3140 3139 3139 3138 3137 3137 3134 3129 3126 3125 3126 3127 3127 3127 3127 3131 3130 3131 3133 3133 3133 3133 3134 3135 3137 3136 3137 3136 3136 3135 3134
3140 3139 3138 3138 3137 3137 3135 3134 3131 3133 3135 3137 3136 3136 3136 3137 3135 3134 3136 3134 3135 3136 3133 3125 3121 3121 3122 3125 3125 3124 3125 3127 3128 3129 3131 3131 3130 3130 3132 3133 3134 3134 3133 3134 3133 3132 3131
3134 3134 3133 3132 3132 3132 3131 3130 3129 3128 3126 3130 3132 3132 3131 3132 3133 3130 3130 3131 3133 3136 3126 3120 3119 3118 3120 3121 3122 3123 3124 3125 3126 3127 3127 3127 3127 3128 3129 3129 3130 3130 3131 3131 3130 3129 3128
3125 3126 3126 3126 3126 3126 3126 3125 3124 3124 3122 3121 3125 3127 3127 3127 3128 3128 3126 3127 3131 3126 3121 3117 3115 3116 3117 3119 3120 3121 3122 3122 3124 3125 3123 3123 3123 3124 3125 3126 3127 3127 3129 3129 3129 3127 3121
3117 3117 3118 3118 3119 3119 3119 3119 3118 3118 3119 3117 3117 3119 3121 3121 3121 3122 3124 3124 3121 3114 3114 3113 3113 3113 3114 3116 3117 3117 3118 3118 3119 3120 3121 3121 3120 3118 3119 3121 3123 3122 3125 3124 3122 3123 3117
3109 3109 3109 3110 3110 3111 3111 3111 3111 3111 3111 3113 3111 3111 3113 3113 3113 3114 3116 3115 3111 3110 3110 3109 3110 3109 3110 3111 3113 3112 3112 3113 3113 3115 3118 3115 3115 3114 3115 3116 3119 3118 3119 3120 3119 3116 3115
3098 3098 3099 3101 3101 3102 3104 3103 3103 3103 3103 3104 3102 3103 3104 3105 3105 3106 3105 3099 3102 3106 3106 3105 3104 3105 3103 3104 3105 3106 3106 3106 3106 3107 3109 3110 3111 3110 3111 3112 3112 3112 3115 3115 3116 3115 3111
3088 3089 3090 3091 3090 3091 3093 3094 3095 3093 3094 3094 3093 3092 3092 3095 3095 3094 3089 3091 3093 3098 3101 3102 3100 3099 3099 3098 3099 3098 3099 3101 3101 3102 3103 3104 3106 3106 3105 3104 3105 3106 3106 3108 3109 3107 3104
3077 3078 3079 3080 3082 3084 3084 3084 3086 3086 3087 3084 3082 3082 3082 3083 3085 3079 3077 3084 3088 3089 3091 3093 3093 3093 3093 3095 3093 3093 3092 3095 3094 3097 3097 3099 3098 3097 3098 3098 3099 3098 3098 3100 3100 3099 3097
3064 3067 3068 3068 3069 3071 3074 3075 3075 3079 3077 3076 3071 3071 3072 3073 3069 3067 3069 3074 3079 3081 3082 3083 3084 3085 3087 3087 3088 3085 3085 3087 3088 3090 3090 3092 3089 3092 3091 3092 3091 3088 3089 3091 3092 3092 3087
3053 3056 3058 3059 3061 3062 3063 3066 3067 3067 3067 3068 3066 3064 3060 3061 3060 3061 3060 3062 3067 3070 3073 3074 3075 3076 3077 3077 3078 3076 3076 3078 3079 3081 3083 3084 3080 3079 3079 3079 3081 3081 3083 3085 3086 3084 3078
3042 3046 3049 3051 3052 3053 3055 3056 3058 3060 3059 3061 3058 3057 3054 3052 3052 3053 3053 3052 3057 3058 3061 3062 3061 3064 3068 3067 3068 3067 3068 3069 3071 3072 3073 3076 3071 3072 3073 3075 3074 3073 3075 3077 3076 3074 3072
3032 3035 3039 3043 3044 3046 3047 3047 3049 3051 3052 3049 3049 3052 3051 3048 3046 3046 3045 3042 3047 3049 3048 3049 3049 3051 3054 3057 3058 3056 3058 3059 3064 3065 3065 3065 3064 3064 3065 3068 3066 3062 3063 3065 3065 3064 3060
3023 3026 3029 3033 3035 3038 3039 3040 3042 3043 3044 3042 3042 3044 3046 3042 3039 3040 3039 3039 3038 3040 3041 3042 3042 3041 3040 3043 3044 3045 3045 3047 3050 3054 3057 3059 3059 3060 3058 3059 3059 3051 3048 3051 3051 3049 3050
3014 3017 3020 3023 3026 3029 3031 3033 3034 3036 3035 3037 3039 3038 3038 3037 3035 3034 3034 3033 3032 3031 3033 3035 3035 3035 3035 3035 3035 3036 3036 3038 3042 3045 3047 3048 3050 3054 3052 3054 3055 3040 3038 3040 3039 3040 3040
3007 3008 3011 3014 3017 3020 3023 3025 3027 3028 3029 3029 3031 3033 3031 3030 3030 3029 3029 3027 3026 3025 3026 3027 3028 3029 3029 3030 3028 3030 3032 3033 3032 3035 3037 3041 3044 3045 3046 3046 3037 3033 3033 3034 3035 3035 3036
3000 3000 3003 3006 3009 3012 3014 3017 3020 3021 3022 3023 3024 3026 3027 3025 3023 3023 3024 3023 3021 3023 3023 3021 3021 3022 3023 3023 3023 3023 3022 3023 3024 3024 3028 3031 3035 3039 3039 3040 3034 3025 3026 3025 3027 3027 3029
2993 2993 2996 2999 3002 3004 3007 3010 3012 3014 3015 3017 3018 3020 3021 3020 3021 3017 3019 3017 3017 3020 3019 3016 3017 3017 3018 3017 3017 3018 3018 3018 3018 3017 3019 3023 3027 3029 3032 3031 3022 3020 3023 3024 3028 3028 3023
2985 2986 2989 2992 2994 2997 3000 3002 3005 3008 3009 3011 3011 3012 3014 3012 3011 3011 3014 3012 3012 3014 3014 3014 3015 3012 3013 3014 3014 3012 3012 3012 3012 3012 3015 3017 3018 3020 3026 3027 3021 3015 3016 3022 3021 3019 3021
2980 2981 2983 2985 2987 2990 2993 2996 2999 3001 3002 3006 3005 3007 3007 3008 3006 3007 3007 3007 3006 3008 3009 3008 3010 3010 3009 3008 3007 3008 3008 3007 3006 3007 3009 3012 3012 3011 3016 3010 3010 3012 3013 3014 3015 3016 3015
Wind_Speed
3 4 4 5 5 5 5 6 7 7 7 6 7 8 8 8 6 6 6 6 5 6 6 6 6 4 5 7 9 7 8 9 10 8 7 7 7 7 8 8 9 11 11 10 10 9 10
6 6 6 7 8 8 8 8 9 9 10 10 10 10 10 10 9 8 7 7 7 6 6 6 6 6 7 8 10 10 9 10 11 10 9 8 7 7 8 8 10 10 11 12 12 12 12
8 8 9 10 10 11 11 11 11 11 11 13 13 12 11 12 12 11 9 10 8 8 8 8 8 7 8 9 10 13 13 12 12 10 10 10 9 9 8 8 11 11 11 11 12 12 13
10 12 11 12 14 14 15 15 14 13 13 14 15 14 13 13 14 13 12 11 10 10 10 10 9 9 11 10 11 13 14 13 13 12 11 11 11 11 12 11 10 12 12 12 12 13 14
13 12 15 15 15 16 16 17 17 16 16 15 15 15 15 15 15 15 15 13 12 12 13 12 12 12 14 12 12 13 14 14 14 13 13 13 13 14 14 13 12 13 8 11 8 11 14
15 15 15 15 17 18 18 17 19 19 18 17 16 17 15 15 16 16 17 16 14 14 15 16 15 14 12 11 12 13 15 16 15 16 16 17 17 17 17 16 8 10 15 11 9 7 12
15 16 17 17 16 17 19 19 18 20 20 19 18 17 17 17 17 17 18 17 16 17 17 17 15 16 18 19 20 19 18 18 18 18 17 17 18 18 14 14 15 8 9 9 9 11 14
19 17 16 19 20 18 20 21 20 19 20 20 20 18 18 17 18 17 18 18 18 18 20 19 18 19 21 21 21 21 21 21 20 20 18 18 19 16 15 16 16 15 15 15 14 14 16
26 24 21 19 19 20 19 20 23 21 22 21 20 21 20 18 17 17 17 18 19 18 21 25 23 23 22 20 18 17 18 19 18 18 17 18 11 17 15 15 16 15 16 15 15 14 16
24 28 27 25 22 22 19 19 22 21 23 23 22 20 22 19 16 17 16 17 17 16 15 18 19 18 17 15 14 13 14 15 15 14 14 13 16 14 16 16 16 16 14 15 16 14 8
30 30 30 32 28 26 23 22 21 21 21 25 23 22 20 22 18 16 16 15 14 12 4 7 11 14 14 13 8 12 12 13 12 12 14 9 11 16 16 16 15 14 14 13 15 16 18
33 34 30 30 31 32 29 26 23 24 21 24 24 24 21 21 22 17 15 15 14 7 9 6 9 10 14 14 12 10 13 13 12 14 15 18 13 13 16 15 15 15 12 12 15 15 6
46 35 33 32 30 32 36 32 29 27 24 22 23 25 24 22 21 21 16 14 10 10 7 8 13 13 14 16 15 14 13 16 13 11 16 19 20 20 18 18 17 16 12 4 3 1 5
42 36 41 38 35 36 33 33 34 32 29 25 23 24 25 23 22 22 21 16 15 13 24 14 7 10 16 19 18 16 18 19 20 20 17 8 8 16 19 21 15 13 17 7 6 3 3
43 43 39 37 39 39 40 42 32 30 32 31 28 26 25 25 24 23 25 24 14 23 20 19 17 17 19 21 22 16 19 23 24 24 19 9 10 11 15 12 14 10 13 13 7 8 3
42 43 42 42 41 42 41 43 38 33 32 28 28 32 31 29 28 27 30 37 32 28 21 19 21 14 15 23 23 22 20 15 17 21 19 15 12 17 15 16 17 18 12 7 7 2 5
41 40 40 38 37 39 39 35 36 34 27 29 33 32 37 36 33 33 40 41 37 36 32 27 29 25 22 21 22 23 14 18 16 16 19 24 20 12 16 18 22 23 24 19 13 8 5
41 39 41 40 40 38 37 34 39 32 23 28 33 33 35 38 39 43 46 42 40 37 35 35 36 26 26 26 27 27 26 26 14 19 21 21 14 17 22 23 22 24 26 27 15 9 12
45 42 40 38 37 37 38 38 34 40 24 30 34 38 39 39 40 48 46 44 43 42 39 38 37 36 35 34 29 29 32 31 30 28 16 21 16 8 5 21 30 29 32 31 31 29 22
47 44 43 41 37 36 35 35 35 34 40 23 26 29 35 39 43 40 44 43 45 46 43 42 42 39 38 38 36 30 27 25 29 30 31 27 27 20 19 8 7 15 20 25 30 26 33
44 45 43 41 39 38 38 36 35 34 34 37 19 27 29 24 30 39 43 42 42 46 43 41 44 43 39 40 39 40 38 29 28 29 31 32 32 32 34 35 34 32 30 26 31 37 38
39 41 42 41 37 37 37 37 35 34 33 37 42 32 32 41 38 30 31 32 34 43 44 43 46 44 40 44 39 35 35 34 31 25 31 34 25 25 31 32 34 38 36 33 37 38 45
34 36 38 39 36 36 35 33 35 34 34 34 36 27 22 22 23 26 29 28 25 25 35 45 43 44 45 46 47 48 43 28 28 29 30 31 29 25 20 22 24 29 36 36 38 42 44
29 34 36 38 37 34 33 32 31 31 31 36 34 34 37 37 28 29 28 23 23 21 20 26 31 34 38 35 34 35 35 32 31 30 25 22 26 19 9 9 4 19 20 19 22 24 26
27 31 35 35 36 35 33 31 30 27 27 29 28 31 29 27 21 19 17 17 17 16 19 21 23 28 33 34 27 21 26 26 30 30 31 31 26 14 7 12 21 26 22 19 22 24 23
27 28 33 33 34 33 33 30 29 27 28 28 23 26 23 29 29 26 23 15 13 13 15 18 20 24 26 26 20 11 12 12 10 12 36 35 30 26 16 7 7 6 6 7 10 21 19
26 26 30 32 30 30 30 30 28 26 26 24 22 21 29 32 34 26 25 23 21 21 22 19 16 20 24 27 26 18 13 12 9 10 11 29 29 33 25 13 14 20 20 17 8 9 6
23 24 27 29 29 28 30 29 27 25 26 21 21 20 23 30 27 26 27 25 21 20 18 17 19 14 15 22 18 17 14 16 14 14 11 16 16 18 22 12 14 17 15 13 11 9 11
20 21 22 24 25 27 28 28 27 25 27 20 23 21 22 23 21 19 19 22 21 18 20 20 20 20 14 10 12 10 13 12 17 10 24 16 17 9 15 10 12 10 10 10 12 18 17
Wind_Direction
250 245 225 218 213 232 257 274 286 287 288 293 294 296 293 288 287 292 287 291 307 311 313 297 274 244 235 235 230 233 228 235 237 240 240 234 226 221 225 228 229 225 226 225 228 232 235
264 249 246 248 244 237 236 250 266 278 285 284 287 288 285 285 282 278 278 279 289 299 303 300 284 262 241 235 238 236 241 247 243 243 245 240 234 229 229 232 220 223 226 228 234 240 244
257 251 258 254 259 260 255 250 252 264 273 280 281 281 280 278 277 278 276 274 277 286 290 293 286 272 261 250 243 243 248 249 246 242 243 239 236 230 234 227 229 223 217 228 233 235 241
258 268 253 255 259 260 268 270 266 266 268 274 279 281 278 275 274 277 276 270 272 279 280 284 281 276 277 262 252 247 246 245 245 239 234 240 239 234 233 232 224 223 228 225 232 230 234
255 254 265 268 262 264 265 271 272 270 270 270 275 277 277 276 277 276 276 274 271 272 278 277 277 275 282 265 252 248 246 238 235 236 234 240 240 235 234 229 228 224 234 223 229 233 235
261 260 257 259 267 270 266 266 274 274 270 268 269 274 275 278 277 277 276 275 274 273 275 276 277 275 265 269 262 253 245 239 240 239 237 235 233 232 232 227 227 241 228 230 229 244 241
243 253 261 261 262 267 272 267 265 273 275 272 269 269 273 274 275 275 275 274 276 275 273 272 267 277 276 277 270 258 250 243 244 244 244 242 239 241 246 237 239 246 234 236 235 250 262
271 258 249 257 260 260 270 272 271 266 270 274 275 271 269 269 273 274 274 275 275 277 279 276 274 275 277 279 271 257 248 247 247 244 240 238 244 238 236 227 232 238 246 255 265 264 264
276 278 277 266 253 255 259 269 273 273 271 268 269 274 271 268 272 275 276 275 277 279 284 282 275 269 269 270 266 253 241 239 240 240 237 235 245 231 228 226 228 236 247 263 269 273 269
279 280 275 276 274 265 254 255 265 271 272 269 267 266 272 269 268 272 274 274 277 284 288 278 270 260 252 250 255 241 231 228 232 229 227 233 231 226 224 229 238 250 257 261 265 269 265
277 274 278 279 271 270 269 263 256 260 269 271 265 264 265 270 263 261 267 271 273 278 327 268 253 248 230 225 238 218 217 215 219 222 215 224 234 230 229 239 243 248 257 256 258 262 272
274 275 272 272 279 270 267 266 265 259 254 264 269 265 262 265 268 254 254 259 261 250 250 252 255 237 225 222 224 219 214 217 226 231 234 240 244 238 233 239 243 247 256 266 269 265 263
269 272 272 272 271 273 267 264 261 259 255 249 259 264 262 258 262 264 247 240 234 220 241 249 249 241 232 222 227 230 235 232 229 228 245 248 248 248 246 246 245 242 246 276 300 216 229
274 276 275 268 271 272 262 263 263 258 259 253 250 253 258 257 254 255 255 227 225 238 233 247 249 241 232 227 232 237 242 240 239 242 254 253 253 240 244 241 241 238 229 216 239 218 252
272 274 272 269 270 269 270 265 266 261 255 257 254 250 250 251 250 246 244 228 237 246 243 240 248 250 241 234 229 235 246 251 251 249 237 233 237 240 242 239 226 220 216 234 260 273 295
268 270 270 269 265 264 267 269 266 261 262 255 259 255 250 245 245 243 239 237 238 250 246 248 247 244 238 235 227 235 250 262 252 239 231 236 253 249 238 230 226 226 226 215 210 245 260
263 264 265 262 263 264 266 271 261 246 247 254 259 257 252 244 240 239 237 242 247 248 250 251 253 250 243 238 233 236 230 247 247 239 230 234 234 237 229 232 241 232 228 229 232 225 204
252 255 259 260 257 259 262 264 253 238 265 259 255 260 254 242 236 237 240 244 249 249 248 250 251 249 247 250 246 239 242 247 245 237 237 233 235 235 251 250 246 241 238 240 223 220 221
247 251 250 248 250 252 254 256 259 251 260 257 256 261 254 251 242 236 240 245 249 250 249 250 250 250 253 252 247 255 255 251 251 247 245 234 229 212 254 250 244 239 240 238 237 242 241
249 248 250 249 249 249 246 250 255 254 260 251 270 256 249 251 250 249 245 241 243 248 250 250 252 251 252 250 250 248 247 242 243 242 243 240 232 221 224 251 227 232 242 244 242 241 248
253 250 252 255 252 251 249 248 251 248 253 243 269 256 254 249 254 256 253 252 248 240 242 246 246 244 248 249 246 246 243 239 236 233 232 230 238 241 248 256 265 268 263 250 244 252 248
256 252 250 253 255 253 253 247 247 253 257 247 249 268 269 261 265 263 259 259 261 256 250 240 243 243 241 243 240 238 234 236 237 234 232 231 240 247 252 254 260 265 261 258 257 255 258
258 253 250 249 250 251 251 253 250 249 254 256 266 256 269 264 258 253 259 263 267 269 270 257 256 249 245 244 247 247 246 234 230 237 240 241 241 251 264 265 265 268 263 262 262 260 260
266 252 249 248 246 247 251 252 253 255 253 254 260 260 263 271 281 276 273 270 271 270 278 280 270 260 258 258 252 247 238 234 235 229 226 231 232 229 253 264 254 262 261 256 250 253 258
269 253 246 246 245 244 246 251 254 254 257 255 253 263 267 273 270 264 280 287 281 279 277 275 279 268 263 258 241 233 237 241 240 237 231 231 229 223 213 213 269 265 256 254 254 264 264
263 256 244 244 245 243 245 248 254 256 256 259 259 250 261 263 267 274 281 262 300 302 293 286 280 273 266 256 234 222 210 210 207 218 234 234 233 226 210 218 233 255 245 247 240 261 260
267 255 245 243 243 244 245 246 248 253 254 258 258 228 244 251 259 267 268 275 283 290 296 298 284 277 265 248 233 228 225 212 210 207 201 209 217 219 223 236 262 259 260 259 249 285 236
266 254 245 245 243 242 243 245 245 247 252 254 262 261 229 259 253 256 269 274 275 277 278 289 294 275 265 243 236 235 234 227 230 227 225 220 211 215 215 223 261 259 252 239 259 256 273
259 253 248 244 243 242 243 244 244 245 249 251 254 261 257 234 252 262 254 261 265 266 257 273 277 291 273 249 232 227 231 237 239 230 238 230 227 225 215 228 227 232 226 224 251 285 276